Vertical_Velocity
-2 -0 1 2 -1 -2 -1 -1 -2 -1 -1 -2 -1 0 2 2 -1 0 1 -0 -8 -2 7 5 2 -1 1 0 -1 0 -0 2 1 -4 -1 -0 -2 -1 -3 -2 -0 -1 2
1 1 0 -2 -1 -1 -0 0 1 -0 -2 -2 -1 -0 -2 0 2 -0 0 1 4 -3 -4 -2 2 2 -3 -0 -3 -2 -3 -0 -1 -2 -3 -3 -1 1 1 0 1 2 2
-1 -0 -0 -1 -2 -0 1 0 0 1 0 0 -1 0 -0 -3 -1 1 -2 2 3 6 3 -2 0 -1 2 2 -1 -0 -3 -4 -4 -1 -2 -2 -1 -5 -2 2 2 0 1
0 1 -2 -1 -2 -1 -1 -0 -2 -1 -0 0 1 -0 -1 -1 -4 -4 -1 -2 -6 -0 1 1 -1 2 -1 -2 1 -1 -0 -3 0 -1 -0 3 2 -2 -6 -3 0 3 2
1 0 1 2 -0 1 1 2 2 -0 -1 -1 0 1 0 1 2 2 -2 -4 -0 -7 -3 3 6 0 -3 1 -1 1 -1 -0 -1 -1 2 -3 -1 2 3 -6 -3 -3 -5
-1 -2 -1 -1 -1 -1 1 1 2 2 2 1 0 1 3 3 2 2 2 3 -0 2 -1 -5 -6 -2 0 1 3 2 1 1 1 -1 -2 -1 2 -6 3 -0 -3 -1 -4
-0 0 1 2 2 1 0 -0 -2 -2 -2 -1 1 0 -0 -1 0 4 4 2 2 4 4 -1 -0 -1 -1 -1 0 1 2 2 1 2 -0 -1 -2 -0 -1 2 -6 -1 -6
0 -0 -1 -1 -0 -1 0 1 2 2 2 1 1 -1 -1 1 1 -5 -5 0 3 2 2 3 0 0 1 -0 0 -0 -1 -0 -1 0 2 -0 -1 -2 -1 1 3 -6 -6
-1 -1 -1 -1 -2 0 1 -1 0 1 2 1 2 2 1 -1 -3 2 3 -2 -3 -3 2 -0 2 1 1 2 3 -1 -1 0 0 -1 0 1 0 -1 -1 2 5 8 1
-0 1 2 1 1 1 0 0 -0 -2 -2 0 0 -0 -3 0 2 1 -1 0 1 2 -1 1 -0 2 2 3 1 1 3 -0 -0 0 -2 -0 1 0 2 -0 -1 0 3
2 1 -2 2 1 2 -0 -0 -1 -2 -2 -2 -2 -1 0 3 -0 -3 -2 -3 -2 -1 -1 0 -1 1 -0 2 2 3 1 1 1 3 -1 -1 1 -2 1 1 -0 -0 6
-1 0 2 2 0 -0 -3 -3 -2 -2 -4 -4 -4 -4 -5 -6 -4 0 1 -1 -3 -0 -4 -3 -2 -2 2 2 0 -1 3 2 -1 1 1 1 0 -1 -0 1 -1 -0 2
1 3 3 2 0 -1 -2 -2 -2 -3 -3 -2 -5 -2 1 3 0 -4 -4 -1 -1 1 -0 -1 -2 -3 -3 -2 1 2 2 -0 2 3 0 1 1 0 -1 -2 -1 1 -1
7 2 0 -1 1 0 -1 1 1 -1 -4 -1 -1 -4 -3 -2 -8 -5 -0 -1 -3 -4 -1 1 -1 -1 -1 -1 -1 0 1 2 -0 2 2 4 -0 -2 1 -1 -1 0 -2
3 1 -1 0 2 0 0 0 -1 -3 -2 -3 -5 -3 -2 -6 -5 1 0 -1 -1 1 -2 -5 2 0 -2 -3 1 2 -0 -1 1 1 -0 -0 0 1 2 -2 -2 2 -1
3 1 2 -2 0 1 -1 0 1 -2 -5 -6 -2 -2 -3 -1 -2 -2 -4 -1 -2 -0 -1 -2 -2 -3 -1 0 1 4 1 -0 -1 -3 -1 0 2 1 2 2 -1 2 0
-1 3 4 -1 -3 -4 -5 -5 -3 -3 -4 -5 -4 -3 -1 -5 -3 -0 0 -1 -4 -3 -1 -1 -1 -3 -1 1 2 2 1 -1 -1 -1 -1 -1 -3 4 2 3 3 -2 1
-1 0 2 -2 -2 -1 -5 -2 3 5 2 -4 -2 -2 -4 -4 -2 1 2 -1 -1 -3 -4 -3 0 -3 -1 1 0 1 0 -1 -2 -1 1 1 -0 -1 3 2 0 -0 -1
-8 -2 4 3 -3 -5 -0 -1 -2 5 -0 3 -1 -4 0 -4 -1 -1 -2 -1 -4 -3 -1 -2 -5 -2 -7 0 0 2 -1 -0 -4 -1 0 2 1 -1 6 2 -0 -1 -3
11 -1 -1 -2 -1 -4 0 -3 1 2 0 -0 -3 -3 -1 -1 -1 1 -0 -1 1 -5 -3 -7 4 -1 -6 1 0 3 2 -1 -2 -1 -2 0 2 3 5 2 4 -4 -0
1 2 1 3 -4 -4 6 -4 -5 -4 1 -2 -0 0 2 -1 1 -4 1 -2 -2 -0 -1 -3 -2 -2 2 -3 -2 0 -1 2 1 -2 -5 -2 2 4 4 3 2 -6 7
-1 -1 -0 -2 -5 0 5 -1 -5 4 -0 0 -1 -2 -1 2 1 0 -1 -1 0 -3 -2 -5 -8 2 -1 -1 -1 -2 -0 1 3 2 -2 -4 1 2 1 5 -0 2 4
-4 0 5 -1 -6 3 8 -5 -6 1 1 -2 -3 -4 -2 2 3 -0 -1 -4 3 -1 -5 -1 -6 -9 5 -2 -2 -2 -0 -1 -1 -1 -0 -2 -1 1 1 4 4 3 1
1 4 4 1 -10 6 2 7 2 3 1 -5 -5 -3 -4 -1 2 1 3 1 2 -1 0 -3 -5 -5 -4 1 -0 -1 -3 -1 -1 -3 -0 1 0 2 1 3 5 -1 0
-4 2 -0 1 -7 0 -5 2 -3 4 -3 -2 -5 -8 -3 -2 -2 2 0 -1 1 5 -3 -1 -2 -3 -9 2 1 2 1 1 2 -1 0 -4 -2 2 3 0 2 1 0
-1 -4 -1 -4 -10 -5 -7 -6 2 4 0 -3 -2 -0 -4 -4 -2 -5 -17 7 4 -1 6 2 9 -2 -5 -1 4 1 0 0 1 1 0 -1 -4 2 -0 1 1 1 0
Height
1526 1525 1525 1524 1523 1523 1522 1520 1519 1518 1517 1517 1516 1516 1515 1514 1513 1511 1510 1509 1509 1508 1507 1507 1507 1505 1503 1503 1503 1502 1499 1498 1496 1495 1494 1494 1495 1496 1497 1499 1500 1501 1503
1526 1525 1524 1524 1523 1522 1521 1520 1518 1517 1516 1516 1515 1514 1513 1513 1511 1510 1508 1507 1505 1505 1506 1505 1505 1503 1501 1500 1499 1497 1496 1494 1493 1493 1492 1490 1491 1489 1490 1492 1493 1494 1495
1525 1525 1524 1523 1522 1522 1520 1519 1518 1517 1516 1514 1513 1512 1511 1510 1510 1508 1507 1506 1504 1502 1501 1500 1499 1499 1498 1496 1495 1493 1491 1491 1493 1493 1494 1493 1491 1488 1487 1488 1488 1489 1489
1525 1524 1523 1522 1521 1521 1520 1519 1517 1516 1514 1513 1512 1510 1509 1507 1506 1505 1505 1503 1501 1500 1498 1497 1496 1495 1494 1493 1492 1490 1489 1489 1490 1490 1492 1492 1490 1490 1486 1485 1485 1486 1486
1524 1524 1523 1523 1522 1521 1519 1518 1516 1515 1514 1512 1511 1509 1508 1506 1504 1502 1501 1501 1499 1497 1496 1495 1493 1492 1491 1490 1489 1489 1487 1488 1487 1487 1486 1487 1487 1488 1486 1480 1481 1480 1480
1525 1526 1525 1524 1523 1521 1519 1518 1516 1514 1513 1511 1509 1508 1506 1504 1502 1500 1498 1497 1496 1495 1493 1492 1491 1489 1488 1488 1487 1486 1485 1484 1483 1481 1482 1482 1484 1483 1482 1479 1476 1475 1475
1527 1526 1526 1524 1523 1521 1519 1518 1516 1514 1513 1511 1509 1507 1505 1503 1501 1499 1495 1493 1491 1490 1489 1488 1487 1486 1485 1484 1483 1482 1481 1479 1478 1477 1476 1477 1477 1478 1477 1475 1472 1470 1468
1527 1526 1525 1524 1523 1522 1520 1519 1517 1515 1513 1510 1508 1506 1504 1502 1499 1497 1495 1492 1489 1486 1485 1483 1482 1481 1480 1479 1478 1476 1475 1474 1473 1472 1472 1471 1471 1470 1470 1469 1468 1465 1463
1525 1525 1524 1524 1523 1522 1520 1518 1517 1515 1513 1510 1507 1505 1502 1499 1497 1495 1492 1489 1488 1484 1481 1479 1477 1476 1474 1472 1471 1469 1469 1468 1467 1467 1466 1465 1464 1463 1463 1463 1463 1462 1457
1524 1524 1523 1522 1521 1520 1518 1517 1516 1513 1511 1509 1506 1502 1500 1497 1494 1491 1489 1485 1483 1480 1477 1475 1472 1470 1468 1467 1465 1462 1461 1460 1460 1459 1459 1458 1457 1456 1456 1456 1455 1456 1454
1523 1522 1522 1520 1519 1517 1516 1514 1513 1511 1508 1506 1504 1500 1497 1494 1490 1487 1484 1481 1478 1475 1472 1469 1466 1464 1462 1460 1457 1455 1454 1453 1452 1452 1451 1450 1450 1449 1448 1447 1447 1447 1447
1520 1520 1520 1519 1517 1514 1513 1511 1509 1506 1504 1502 1499 1496 1492 1489 1487 1482 1478 1475 1471 1468 1465 1462 1460 1457 1455 1453 1451 1448 1447 1445 1444 1444 1444 1442 1442 1441 1440 1439 1439 1438 1439
1519 1518 1517 1516 1514 1511 1509 1507 1504 1502 1500 1497 1494 1491 1487 1483 1479 1475 1472 1468 1464 1461 1458 1455 1452 1450 1447 1445 1443 1441 1439 1437 1436 1436 1435 1435 1435 1434 1433 1432 1431 1430 1430
1514 1516 1515 1514 1512 1508 1506 1503 1500 1497 1494 1492 1488 1485 1482 1477 1473 1470 1466 1462 1459 1455 1451 1448 1444 1441 1439 1437 1435 1433 1431 1429 1428 1427 1427 1426 1426 1426 1426 1425 1423 1424 1423
1512 1512 1512 1510 1508 1505 1502 1498 1495 1492 1489 1485 1483 1480 1476 1473 1470 1464 1460 1456 1453 1449 1445 1441 1437 1433 1431 1429 1427 1425 1422 1421 1419 1418 1417 1417 1417 1418 1418 1417 1415 1416 1415
1512 1510 1508 1506 1503 1500 1497 1494 1489 1484 1481 1480 1476 1473 1470 1467 1463 1458 1454 1450 1446 1442 1438 1434 1430 1426 1423 1421 1419 1416 1413 1411 1410 1409 1408 1407 1408 1409 1409 1409 1408 1408 1407
1510 1506 1502 1500 1497 1495 1492 1489 1484 1479 1474 1471 1469 1467 1464 1460 1458 1453 1447 1444 1439 1435 1431 1427 1423 1419 1415 1413 1410 1408 1404 1402 1400 1399 1399 1398 1398 1399 1400 1401 1401 1399 1399
1504 1503 1499 1495 1491 1487 1484 1482 1477 1473 1468 1465 1462 1460 1457 1455 1451 1447 1441 1437 1432 1429 1423 1419 1415 1410 1408 1404 1402 1399 1395 1393 1391 1390 1389 1389 1389 1389 1391 1392 1392 1391 1390
1496 1494 1492 1488 1483 1482 1477 1474 1470 1466 1463 1459 1456 1453 1450 1447 1444 1439 1435 1430 1426 1422 1417 1413 1408 1403 1399 1396 1393 1390 1387 1383 1381 1381 1381 1380 1379 1381 1382 1383 1383 1382 1382
1489 1485 1483 1479 1476 1473 1470 1466 1463 1459 1456 1453 1449 1446 1443 1440 1436 1432 1427 1423 1419 1414 1410 1406 1402 1397 1392 1388 1385 1383 1380 1376 1374 1372 1371 1371 1371 1372 1373 1374 1374 1374 1374
1481 1478 1474 1471 1469 1467 1463 1459 1456 1452 1449 1446 1442 1439 1436 1433 1429 1425 1421 1416 1412 1407 1403 1399 1394 1390 1386 1381 1378 1376 1373 1370 1366 1364 1362 1361 1362 1363 1363 1364 1366 1365 1367
1470 1469 1465 1463 1462 1459 1456 1452 1448 1446 1442 1438 1434 1431 1428 1424 1420 1417 1413 1409 1404 1400 1395 1391 1386 1382 1378 1375 1372 1370 1367 1364 1361 1357 1355 1353 1353 1354 1354 1355 1357 1358 1359
1461 1459 1458 1457 1455 1452 1449 1444 1440 1438 1434 1430 1425 1421 1417 1414 1410 1407 1403 1399 1396 1391 1387 1383 1378 1373 1370 1366 1364 1362 1359 1356 1353 1350 1347 1345 1344 1345 1345 1346 1349 1351 1351
1455 1454 1452 1450 1447 1443 1440 1436 1433 1430 1425 1421 1416 1412 1407 1403 1400 1397 1394 1390 1386 1383 1379 1375 1370 1365 1361 1358 1355 1353 1350 1347 1345 1342 1339 1338 1337 1337 1337 1339 1340 1342 1343
1451 1449 1445 1443 1439 1435 1430 1427 1424 1420 1416 1412 1407 1402 1399 1395 1390 1388 1385 1382 1378 1375 1370 1366 1363 1358 1351 1349 1347 1346 1343 1339 1337 1334 1331 1329 1328 1328 1328 1330 1332 1334 1336
1444 1441 1437 1434 1430 1425 1421 1417 1414 1410 1406 1401 1396 1392 1388 1384 1381 1378 1373 1372 1367 1364 1361 1357 1354 1348 1344 1340 1338 1336 1334 1331 1328 1324 1322 1320 1320 1320 1321 1322 1324 1326 1328